Date String (YYYY-MM-DD hh:mm:ss) UTC,Instrument flags,Ambient pressure (hPa),Sample flow (lpm),Bypass flow (lpm),Sample temperature (°C),Ambient temperature (°C),ASC tube jacket temperature (°C),LED temperature (°C),Box temperature (°C),Sample RH (%),Span deviation,Mass concentration (μg/m³),Mass concentration (μg/m³),Mass concentration (μg/m³)
DateTimeUTC,F1_M11,P_M11,Q1_M11,Q2_M11,T1_M11,T2_M11,T3_M11,T4_M11,T5_M11,U1_M11,ZSPAN_M11,X2_M11,X0_M11,X1_M11
2023-01-11 19:00:00,,0818.3,5.00,0.00,22.5,21.3,00.0,31.4,24.3,21.3,-001.0,0011.31,0012.42,0011.17
2023-01-11 19:01:00,,0818.3,5.01,0.00,22.5,21.3,00.0,31.4,24.3,21.3,-001.1,0011.33,0012.38,0011.18
2023-01-11 19:02:00,,0818.2,5.00,0.00,22.5,21.3,00.0,31.4,24.3,21.3,-000.7,0011.35,0012.37,0011.19
2023-01-11 19:03:00,,0818.2,4.98,0.00,22.5,21.3,00.0,31.4,24.3,21.4,-000.7,0011.37,0012.45,0011.21
2023-01-11 19:04:00,,0818.3,5.00,0.00,22.5,21.3,00.0,31.4,24.3,21.4,-000.3,0011.39,0012.52,0011.22
2023-01-11 19:05:00,,0818.4,4.99,0.00,22.5,21.3,00.0,31.4,24.3,21.3,-000.3,0011.43,0012.61,0011.24
2023-01-11 19:06:00,,0818.3,5.00,0.00,22.5,21.3,00.0,31.4,24.3,21.3,-000.3,0011.44,0012.64,0011.24
2023-01-11 19:07:00,,0818.3,5.00,0.00,22.5,21.3,00.0,31.4,24.3,21.3,0000.4,0011.42,0012.62,0011.23
2023-01-11 19:08:00,,0818.3,4.99,0.00,22.5,21.3,00.0,31.4,24.4,21.3,0000.6,0011.43,0012.61,0011.25
2023-01-11 19:09:00,,0818.4,4.99,0.00,22.5,21.3,00.0,31.4,24.4,21.3,0000.1,0011.45,0012.63,0011.29
2023-01-11 19:10:00,,0818.3,5.00,0.00,22.5,21.3,00.0,31.4,24.4,21.2,0000.0,0011.44,0012.65,0011.27
2023-01-11 19:11:00,,0818.3,5.00,0.00,22.5,21.3,00.0,31.4,24.3,21.3,-000.1,0011.43,0012.32,0011.25
2023-01-11 19:12:00,,0818.4,5.00,0.00,22.5,21.3,00.0,31.4,24.4,21.4,-000.1,0011.36,0012.14,0011.19
2023-01-11 19:13:00,,0818.4,4.99,0.00,22.6,21.3,00.0,31.4,24.4,21.3,-000.3,0011.27,0012.05,0011.12
2023-01-11 19:14:00,,0818.4,5.00,0.00,22.6,21.3,00.0,31.4,24.4,21.3,-000.1,0011.15,0011.86,0011.00
2023-01-11 19:15:00,,0818.4,5.00,0.00,22.6,21.3,00.0,31.4,24.4,21.3,-000.0,0010.98,0011.65,0010.83
2023-01-11 19:16:00,,0818.3,4.99,0.00,22.6,21.3,00.0,31.4,24.4,21.4,-000.3,0010.81,0011.47,0010.67
2023-01-11 19:17:00,,0818.3,5.01,0.00,22.6,21.3,00.0,31.4,24.4,21.5,-000.3,0010.72,0011.36,0010.59
2023-01-11 19:18:00,,0818.3,5.02,0.00,22.6,21.3,00.0,31.4,24.4,21.5,-000.8,0010.69,0011.38,0010.55
2023-01-11 19:19:00,,0818.4,5.01,0.00,22.6,21.3,00.0,31.4,24.4,21.6,-000.9,0010.63,0011.32,0010.48
2023-01-11 19:20:00,,0818.4,5.00,0.00,22.6,21.3,00.0,31.4,24.4,21.5,-000.9,0010.57,0011.26,0010.42
2023-01-11 19:21:00,,0818.4,5.01,0.00,22.6,21.3,00.0,31.4,24.4,21.6,-000.7,0010.57,0011.28,0010.42
2023-01-11 19:22:00,,0818.4,5.00,0.00,22.6,21.3,00.0,31.4,24.4,21.6,-000.5,0010.55,0011.22,0010.42
2023-01-11 19:23:00,,0818.4,5.00,0.00,22.6,21.3,00.0,31.4,24.4,21.6,-000.1,0010.43,0011.09,0010.32
2023-01-11 19:24:00,,0818.4,5.00,0.00,22.6,21.3,00.0,31.4,24.4,21.6,0000.1,0010.31,0010.99,0010.20
2023-01-11 19:25:00,,0818.4,5.00,0.00,22.6,21.3,00.0,31.4,24.4,21.5,0000.0,0010.19,0010.91,0010.07
2023-01-11 19:26:00,,0818.4,5.00,0.00,22.6,21.3,00.0,31.4,24.4,21.6,0000.0,0010.09,0010.81,0009.98
2023-01-11 19:27:00,,0818.5,5.00,0.00,22.6,21.3,00.0,31.4,24.4,21.8,0000.2,0010.00,0010.72,0009.89
2023-01-11 19:28:00,,0818.5,5.00,0.00,22.5,21.3,00.0,31.4,24.4,21.6,0000.3,0009.84,0010.58,0009.74
2023-01-11 19:29:00,,0818.5,5.00,0.00,22.5,21.3,00.0,31.4,24.3,21.6,0000.2,0009.67,0010.44,0009.60
2023-01-11 19:30:00,,0818.5,5.00,0.00,22.5,21.3,00.0,31.4,24.3,21.6,0000.1,0009.49,0010.29,0009.43
2023-01-11 19:31:00,,0818.5,5.01,0.00,22.5,21.3,00.0,31.4,24.4,21.7,0000.0,0009.36,0010.18,0009.31
2023-01-11 19:32:00,,0818.6,5.00,0.00,22.5,21.3,00.0,31.4,24.4,21.7,-000.1,0009.28,0010.11,0009.23
2023-01-11 19:33:00,,0818.7,5.01,0.00,22.5,21.3,00.0,31.4,24.3,21.9,-000.3,0009.28,0010.14,0009.22
2023-01-11 19:34:00,,0818.7,5.00,0.00,22.5,21.3,00.0,31.4,24.3,21.8,-000.5,0009.42,0010.32,0009.35
2023-01-11 19:35:00,,0818.7,5.00,0.00,22.5,21.3,00.0,31.4,24.3,21.7,-000.5,0009.64,0010.56,0009.54
2023-01-11 19:36:00,,0818.7,5.00,0.00,22.5,21.2,00.0,31.4,24.3,21.8,-000.5,0009.85,0010.76,0009.75
2023-01-11 19:37:00,,0818.7,4.99,0.00,22.5,21.1,00.0,31.4,24.3,21.7,-000.5,0010.08,0011.19,0009.96
2023-01-11 19:38:00,,0818.7,5.01,0.00,22.5,21.1,00.0,31.4,24.2,21.6,-000.4,0010.26,0011.39,0010.11
2023-01-11 19:39:00,,0818.7,5.01,0.00,22.5,21.1,00.0,31.4,24.2,21.6,-000.4,0010.38,0011.55,0010.22
2023-01-11 19:40:00,,0818.7,4.98,0.00,22.4,21.0,00.0,31.4,24.2,21.6,-000.1,0010.57,0011.80,0010.38
2023-01-11 19:41:00,,0818.7,5.00,0.00,22.4,21.0,00.0,31.4,24.1,21.6,0000.3,0010.76,0011.92,0010.56
2023-01-11 19:42:00,,0818.7,5.00,0.00,22.4,20.9,00.0,31.4,24.1,21.5,0000.1,0010.97,0012.54,0010.72
2023-01-11 19:43:00,,0818.7,4.99,0.00,22.4,20.9,00.0,31.3,24.1,21.6,-000.0,0011.09,0012.74,0010.82
2023-01-11 19:44:00,,0818.7,4.99,0.00,22.4,20.9,00.0,31.3,24.1,21.7,-000.1,0011.13,0012.76,0010.85
2023-01-11 19:45:00,,0818.7,5.00,0.00,22.3,20.9,00.0,31.3,24.1,21.7,-000.2,0011.14,0012.71,0010.86
2023-01-11 19:46:00,,0818.7,5.01,0.00,22.3,20.9,00.0,31.3,24.1,21.7,-000.3,0011.14,0012.68,0010.87
2023-01-11 19:47:00,,0818.7,5.01,0.00,22.3,20.9,00.0,31.3,24.1,21.7,-000.1,0011.14,0012.66,0010.87
2023-01-11 19:48:00,,0818.8,5.01,0.00,22.3,20.9,00.0,31.3,24.1,21.8,-000.2,0011.13,0012.44,0010.88
2023-01-11 19:49:00,,0818.7,4.99,0.00,22.3,20.9,00.0,31.3,24.1,21.8,-000.1,0011.16,0012.51,0010.89
2023-01-11 19:50:00,,0818.7,5.00,0.00,22.3,20.9,00.0,31.3,24.0,21.8,-000.0,0011.21,0012.48,0010.95
2023-01-11 19:51:00,,0818.8,4.98,0.00,22.3,20.9,00.0,31.3,24.1,21.8,-000.1,0011.14,0012.28,0010.90
2023-01-11 19:52:00,,0818.8,5.00,0.00,22.3,21.0,00.0,31.3,24.1,21.9,-000.1,0011.05,0012.20,0010.83
2023-01-11 19:53:00,,0818.8,5.00,0.00,22.3,20.9,00.0,31.3,24.1,21.9,0000.1,0010.95,0011.71,0010.75
2023-01-11 19:54:00,,0818.8,5.01,0.00,22.3,20.9,00.0,31.2,24.0,21.9,0000.2,0010.81,0011.51,0010.65
2023-01-11 19:55:00,,0818.8,4.99,0.00,22.3,20.9,00.0,31.2,24.0,22.0,0000.4,0010.72,0011.46,0010.55
2023-01-11 19:56:00,,0818.8,5.01,0.00,22.3,20.9,00.0,31.2,24.0,22.1,0000.5,0010.61,0011.37,0010.44
2023-01-11 19:57:00,,0818.8,5.00,0.00,22.2,20.9,00.0,31.2,24.0,22.0,0000.6,0010.55,0011.33,0010.38
2023-01-11 19:58:00,,0818.8,5.02,0.00,22.2,20.8,00.0,31.2,23.9,22.0,0000.5,0010.51,0011.37,0010.34
2023-01-11 19:59:00,,0818.9,5.00,0.00,22.2,20.7,00.0,31.2,23.9,22.0,0000.5,0010.46,0011.30,0010.29
